Wind_Speed
103 104 104 104 104 104 104 104 104 104 104 104 104 104 104 105 106 107 108 109 111 112 114 115 117 119 120 122 124 126 128 130 131 133 134 135 136 136 137 138 139 140 140 141 142 142 142 141 138 135 130 125 118 112 106 101 96 91 86 82 77 72 67 62 58 53 50 46 43 39 37 34 31 29 27 25 24 23 23 23 23 23 23 23 23 23
104 105 105 105 105 105 104 104 104 104 103 103 104 104 105 106 107 108 110 111 112 114 115 117 118 120 122 124 126 128 129 131 132 134 135 136 136 137 138 139 140 140 141 142 142 142 141 139 136 132 127 121 115 109 103 98 93 88 84 79 74 69 64 60 55 51 47 44 41 38 35 32 30 28 26 25 23 23 23 23 23 23 23 23 23 24
105 105 105 105 105 104 104 104 104 103 103 103 104 105 106 107 108 110 111 113 114 116 117 119 120 122 124 126 127 129 131 132 133 135 136 136 137 138 139 140 140 141 142 142 142 141 140 138 134 130 124 118 111 106 100 95 91 86 81 76 71 66 61 57 53 48 45 42 39 36 33 31 29 27 25 24 23 23 23 23 23 23 24 24 24 24
105 105 105 105 105 104 104 103 103 103 104 104 105 106 107 108 110 111 112 114 115 117 119 120 122 124 126 127 129 130 132 133 134 135 136 137 138 139 140 140 141 141 142 142 142 141 139 136 132 126 120 114 108 102 97 93 88 83 78 73 68 63 59 54 50 46 43 39 37 34 32 29 27 26 24 23 23 23 23 23 23 24 24 24 24 24
105 105 105 104 104 104 104 104 104 104 105 106 107 108 109 110 111 112 114 115 117 119 120 122 124 126 127 129 130 131 132 134 135 136 137 138 139 140 140 141 141 142 142 142 141 140 137 134 129 123 117 111 105 99 95 90 85 80 75 70 65 60 56 52 47 44 41 37 35 32 30 28 26 25 24 23 23 23 23 23 24 24 24 24 25 25
104 104 104 104 104 104 104 104 105 105 106 107 108 109 110 111 113 114 115 117 119 120 122 124 126 127 128 129 131 132 133 135 136 138 139 139 140 140 140 141 141 142 142 142 140 138 135 131 125 119 113 107 102 97 92 87 82 77 72 67 62 58 53 49 45 42 39 36 33 31 29 27 25 24 24 23 23 23 23 23 24 24 25 25 25 25
104 104 104 104 104 104 105 105 106 107 108 109 110 111 112 113 114 116 117 119 120 122 124 125 127 128 129 131 132 133 135 137 138 139 140 140 140 140 141 141 142 142 142 141 139 137 133 128 122 115 109 104 98 94 89 84 79 74 69 64 59 55 51 47 43 40 37 34 32 29 27 26 25 24 23 23 23 23 24 24 24 25 25 25 25 25
104 104 105 105 105 106 106 107 108 108 109 110 111 112 113 115 116 118 119 121 122 124 125 127 128 130 131 132 134 135 137 138 139 140 140 140 140 141 141 142 142 142 141 140 138 135 130 124 118 112 106 101 96 91 86 81 76 71 66 61 57 52 48 44 41 38 35 32 30 28 26 25 24 24 23 23 23 24 24 24 25 25 25 25 25 25
104 105 105 106 106 106 107 108 109 110 110 111 112 113 115 116 118 120 121 123 124 125 127 128 130 131 133 134 136 137 138 139 140 140 140 140 140 141 141 142 142 142 141 139 136 132 126 120 114 108 102 97 93 88 83 78 73 68 63 58 54 50 46 42 39 36 33 31 29 27 26 25 24 24 24 24 24 24 24 25 25 25 26 26 26 25
105 105 106 107 107 108 108 109 110 111 112 113 114 115 116 118 119 121 123 124 126 128 129 130 131 133 135 136 137 139 139 139 140 140 140 140 141 141 142 142 142 141 140 137 134 129 123 116 110 104 99 95 90 85 80 75 70 65 60 56 51 47 44 40 37 35 32 30 28 26 25 24 24 24 24 24 24 25 25 25 25 26 26 26 26 26
106 106 106 107 108 109 109 110 111 113 114 115 116 118 119 120 121 122 124 126 128 130 131 133 134 135 136 138 138 139 139 139 139 139 140 141 141 142 142 142 141 140 138 135 130 125 118 112 106 101 96 92 87 82 77 72 67 62 57 53 49 45 42 38 36 33 31 29 27 25 25 24 24 24 24 24 25 25 25 26 26 26 26 26 26 26
106 107 107 108 109 110 111 113 114 115 116 117 118 119 121 122 124 125 126 128 130 132 133 135 136 137 138 138 138 138 138 138 139 139 140 142 142 142 142 141 140 139 136 132 127 121 114 108 103 98 93 89 84 79 74 69 64 59 55 50 47 43 40 37 34 32 29 28 26 25 24 24 24 24 25 25 25 26 26 26 26 26 27 27 26 26
107 108 109 110 111 112 113 115 116 117 118 119 120 121 123 125 126 127 129 130 132 134 135 136 137 138 138 138 138 137 138 138 139 140 141 142 142 142 141 140 139 137 133 128 123 116 110 105 100 95 90 86 81 76 71 66 61 56 52 48 44 41 38 35 32 30 28 27 26 25 24 24 25 25 25 26 26 26 26 27 27 27 27 27 27 27
109 110 111 112 113 114 116 117 118 119 120 121 122 124 125 127 128 130 131 133 134 136 137 137 137 138 138 137 137 137 137 138 140 141 142 143 142 142 140 139 137 134 130 124 118 112 106 101 96 92 87 82 77 73 67 62 58 53 49 46 42 39 36 34 31 29 28 26 25 25 25 25 25 25 26 26 26 27 27 27 27 27 27 27 27 27
111 112 113 114 115 117 118 119 120 121 122 124 125 126 128 129 131 132 133 135 136 137 137 137 137 137 137 137 137 137 138 140 141 142 142 142 142 141 139 137 134 131 126 120 113 108 103 98 93 89 84 79 74 69 64 59 55 51 47 44 40 38 35 32 30 28 27 26 25 25 25 25 26 26 26 27 27 27 27 28 28 28 28 28 28 28
113 114 115 116 118 119 120 121 122 123 125 126 127 129 130 131 132 134 135 136 137 137 137 137 136 136 137 137 138 139 140 141 142 142 142 141 141 140 138 135 131 127 122 115 109 104 99 94 90 86 81 76 71 66 61 57 52 49 45 42 39 36 33 31 29 28 27 26 26 25 26 26 26 27 27 27 28 28 28 28 28 28 28 29 29 29
115 116 117 118 120 121 122 123 124 126 127 128 129 130 132 133 134 135 136 136 137 137 137 136 136 136 137 138 140 142 142 142 142 142 142 140 140 139 136 132 127 122 117 111 105 100 96 91 87 82 78 73 68 63 58 54 50 46 43 40 37 34 32 30 28 27 27 26 26 26 26 27 27 27 28 28 28 28 29 29 29 29 29 29 29 29
118 119 120 121 122 123 124 125 127 128 129 130 131 132 133 134 135 136 136 137 137 136 136 136 136 137 138 139 141 143 144 142 142 141 141 140 138 137 134 129 123 118 112 106 101 97 92 88 84 79 74 69 65 60 55 51 48 44 41 38 35 33 31 29 28 27 27 26 27 27 27 27 28 28 28 29 29 29 29 29 29 29 30 30 30 30
120 121 122 123 124 125 126 127 129 130 131 132 133 134 135 136 136 137 137 136 136 136 136 136 138 139 140 141 143 144 144 142 141 140 140 138 136 134 130 125 119 113 108 102 98 93 89 85 80 76 71 66 61 57 53 49 46 42 39 37 34 32 30 29 28 27 27 27 27 27 28 28 28 29 29 29 30 30 30 30 30 30 30 31 31 31
122 123 124 125 126 127 128 130 131 132 133 134 135 135 136 136 136 136 136 136 136 136 137 138 139 141 142 143 143 144 143 142 141 139 138 137 134 130 126 120 114 108 103 99 94 90 86 82 77 72 68 63 58 54 50 47 44 41 38 35 33 31 30 29 28 28 28 28 28 28 29 29 29 30 30 30 30 30 30 31 31 31 31 31 31 32
124 125 126 128 128 129 131 132 133 134 135 135 135 135 135 135 135 135 136 136 137 138 139 140 141 142 143 143 143 143 142 141 139 138 137 134 131 127 121 115 109 104 99 95 91 87 82 78 73 69 64 60 56 52 48 45 42 39 36 34 32 31 29 29 28 28 28 28 29 29 29 30 30 30 30 31 31 31 31 31 31 31 32 32 32 32
126 128 129 130 131 131 132 133 134 134 135 134 134 134 135 135 135 136 137 138 139 140 141 142 143 143 143 143 142 142 142 140 138 136 134 131 127 122 116 111 105 100 96 92 88 84 79 75 70 65 61 57 53 49 46 43 40 37 35 33 31 30 29 29 29 29 29 29 30 30 30 30 31 31 31 31 32 32 32 32 32 32 32 32 33 33
128 129 130 131 132 133 133 133 134 134 134 134 134 135 135 136 137 138 139 140 141 142 143 143 144 144 143 143 142 141 140 139 137 134 130 126 122 117 111 106 101 96 92 88 84 80 76 71 66 62 58 54 51 47 44 41 38 36 34 32 31 30 29 29 29 29 30 30 30 31 31 31 31 31 32 32 32 33 33 33 33 33 33 33 33 34
130 130 131 132 133 133 133 133 134 134 135 135 136 137 138 139 139 140 141 142 142 143 143 144 143 143 143 142 141 140 139 137 134 131 126 122 117 112 107 101 97 93 89 85 81 76 72 67 63 59 55 52 48 45 42 39 37 35 33 32 31 30 30 30 30 30 31 31 31 31 31 32 32 32 32 33 33 33 33 33 33 33 33 34 34 34
131 131 132 133 133 134 134 135 136 136 137 138 139 139 140 141 142 142 143 143 143 143 143 143 142 142 141 141 139 138 137 135 131 127 122 117 112 107 102 97 93 89 85 82 77 73 68 64 60 56 53 49 46 43 40 38 36 34 32 31 31 30 30 30 30 31 31 31 32 32 32 32 32 33 33 34 34 34 34 34 34 34 34 34 35 35
132 133 134 135 135 136 137 137 138 139 140 140 141 141 142 142 143 143 143 143 143 143 143 142 142 141 141 140 138 136 134 131 127 122 117 111 106 102 98 94 90 85 82 78 74 69 65 60 57 54 50 47 44 41 39 37 35 33 32 31 31 31 30 31 31 31 32 32 32 32 32 33 33 33 34 34 34 35 35 35 34 34 34 35 35 36
135 135 136 137 138 138 139 140 140 141 141 142 142 142 143 143 143 143 143 143 143 142 142 141 141 140 140 138 136 133 130 127 122 117 112 106 102 98 94 90 86 82 78 74 70 66 61 57 54 51 48 45 42 40 38 36 34 33 32 31 31 31 31 31 31 32 32 32 33 33 33 33 33 34 34 35 35 35 35 35 35 35 35 35 36 37
137 138 138 139 139 140 141 141 142 142 142 142 143 143 143 143 142 142 142 143 142 142 141 141 140 139 138 136 133 130 126 121 117 112 107 102 97 94 90 87 83 79 74 70 66 62 58 54 51 49 46 43 41 38 36 35 33 32 32 31 31 31 31 32 32 32 33 33 33 33 33 34 34 35 35 36 36 36 36 36 36 36 36 36 37 38
139 140 140 141 141 141 142 142 143 143 143 143 143 143 143 143 142 141 142 142 142 141 140 140 139 137 135 132 129 126 121 116 111 107 102 97 93 90 87 83 79 75 71 66 63 59 56 52 49 46 44 41 39 37 35 34 33 32 32 31 32 32 32 32 32 33 33 33 33 33 34 34 35 35 36 37 37 37 37 36 36 36 36 37 38 39
141 141 142 142 142 143 143 143 144 144 144 144 144 143 143 143 142 141 141 141 140 139 139 138 136 134 132 128 124 121 116 111 107 102 97 93 89 86 83 79 75 71 67 63 59 56 53 50 47 44 42 39 37 36 34 33 32 32 32 32 32 32 32 33 33 33 33 33 34 34 34 35 36 36 37 37 37 37 37 37 37 37 37 38 39 40
143 143 143 143 144 144 144 144 145 144 144 144 144 143 143 142 141 141 140 140 139 138 137 135 133 130 127 123 119 114 110 106 102 97 93 89 86 83 79 75 71 68 64 59 56 53 50 48 45 43 40 38 36 35 34 33 32 32 32 32 32 33 33 33 33 34 34 34 34 35 35 36 37 37 38 38 38 38 38 37 37 38 38 39 40 40
144 144 144 145 145 145 145 145 145 144 144 143 143 142 141 141 140 140 139 139 137 136 134 131 129 126 122 118 113 109 105 101 97 93 89 85 82 79 76 71 67 64 60 57 53 50 47 45 43 41 39 37 35 34 33 32 32 32 32 32 33 33 33 34 34 34 34 35 35 36 36 37 38 38 38 38 38 38 38 38 38 38 39 40 41 41
145 145 145 146 146 146 145 145 144 143 143 142 141 141 140 139 139 139 138 137 135 133 130 127 124 121 117 113 108 104 100 96 93 89 85 82 78 75 72 68 64 60 57 54 51 48 45 43 41 39 37 36 34 33 32 32 32 32 32 33 33 34 34 34 34 35 35 36 36 37 37 38 38 39 39 39 39 38 38 39 39 39 40 41 42 42
146 145 145 145 145 144 144 143 142 142 141 140 140 139 139 138 137 137 135 134 132 129 126 122 119 115 111 107 103 99 96 92 89 85 82 78 75 71 68 64 60 57 54 51 49 46 44 42 40 38 36 35 34 33 32 32 32 32 33 33 34 34 34 35 35 36 36 37 37 38 38 39 39 39 39 39 39 39 39 39 40 40 41 42 42 43
145 144 144 144 143 142 142 141 140 140 139 139 138 138 137 136 135 134 132 130 128 125 121 118 114 109 105 101 97 94 91 88 85 82 78 75 71 67 64 60 57 54 51 48 46 44 42 41 39 37 35 34 33 33 32 32 32 33 33 33 34 35 35 35 36 36 37 37 38 38 38 39 39 39 39 39 39 39 39 40 40 41 42 43 43 43
143 142 142 142 141 140 140 139 139 139 138 138 137 136 135 134 132 130 128 126 123 120 116 112 108 104 100 96 92 89 86 84 81 78 75 71 67 63 60 57 54 51 48 46 44 42 41 39 38 36 35 34 33 33 33 32 32 33 33 34 35 35 36 36 36 37 37 37 38 38 38 39 39 39 39 39 39 39 40 40 41 42 43 43 44 44
141 141 141 141 140 140 139 139 138 138 137 136 135 134 132 130 128 126 124 121 118 114 111 107 103 99 95 92 88 85 82 80 77 74 71 67 64 60 57 54 52 49 46 44 42 41 39 38 37 36 35 34 33 33 33 33 33 33 34 35 35 35 36 36 36 37 37 38 38 38 38 39 39 39 39 39 40 40 41 41 42 43 44 44 44 45
140 140 140 140 139 139 138 137 136 136 134 133 131 130 128 126 124 121 118 115 112 109 105 101 98 94 91 88 85 82 79 76 73 70 67 64 60 57 54 52 49 47 45 42 40 39 38 37 36 35 34 34 33 33 33 33 34 34 35 35 35 36 36 36 36 37 37 38 38 38 39 39 39 39 39 40 40 41 42 42 43 44 44 45 45 45
139 139 139 139 138 137 136 135 134 133 131 129 128 126 124 121 119 116 113 110 107 103 100 96 93 90 87 84 81 78 76 73 69 66 63 60 57 54 52 49 47 45 43 41 39 38 36 35 35 34 34 33 33 33 33 34 34 35 35 35 36 36 36 36 36 37 37 38 38 38 39 39 39 39 40 40 41 42 43 43 44 44 45 45 46 46
138 138 137 137 136 134 133 131 130 129 127 125 123 121 119 116 113 110 108 104 101 98 95 92 88 85 83 80 77 74 72 69 66 63 60 57 54 52 50 48 45 44 42 40 38 36 35 34 34 33 33 33 33 34 34 34 35 35 35 36 36 36 36 36 36 37 37 38 38 39 39 39 39 40 40 41 42 43 44 44 45 45 45 46 46 47
136 135 135 134 132 131 129 128 126 125 123 121 118 116 113 110 107 105 102 99 96 93 90 87 84 82 79 76 74 71 68 65 62 59 57 54 52 50 48 46 44 42 40 38 37 36 34 33 33 33 33 33 33 34 34 35 35 35 35 36 36 36 36 36 36 37 37 38 38 38 39 39 39 40 41 42 43 44 44 45 45 46 46 46 47 47
133 132 131 130 128 127 125 124 122 120 118 115 113 110 107 105 102 99 97 94 91 89 86 83 80 78 75 73 70 67 64 61 59 56 54 52 50 48 47 45 43 41 39 37 36 35 34 33 32 32 32 32 33 34 34 35 35 35 35 36 36 36 36 36 37 37 37 38 38 38 39 39 40 41 42 43 44 44 45 45 46 46 47 47 48 48
129 128 127 126 124 123 121 119 117 115 112 110 107 104 102 99 97 94 92 89 87 84 82 79 77 74 71 69 66 64 61 58 56 54 52 50 48 47 45 43 42 40 38 36 35 34 33 32 32 32 32 32 33 34 34 35 35 35 35 35 35 36 37 37 37 37 37 38 38 39 39 40 41 42 43 44 45 45 46 46 47 47 48 48 49 49
126 125 123 121 120 118 116 114 111 109 107 104 101 99 97 94 92 89 87 85 83 80 78 76 73 70 68 65 62 60 57 55 53 51 50 48 47 45 44 42 41 39 37 36 34 33 32 32 31 31 32 32 33 33 34 35 35 35 35 35 36 36 37 37 37 38 38 38 39 39 40 41 42 43 44 45 45 46 46 47 47 48 48 49 49 50
121 120 118 117 115 113 110 108 106 104 101 99 96 94 92 89 87 85 83 81 79 77 74 72 69 66 64 61 59 56 54 53 51 50 48 47 45 44 42 41 39 38 36 35 34 33 32 31 31 31 31 32 32 33 34 34 35 35 35 35 36 36 37 37 38 38 39 39 39 40 41 42 43 44 45 46 46 47 47 48 48 49 49 50 50 51
117 115 113 112 109 107 105 103 101 98 96 94 92 89 87 85 83 81 79 77 75 73 71 68 66 63 60 58 56 54 52 51 49 48 47 45 44 43 41 39 38 36 35 34 33 32 32 31 31 31 31 32 32 33 34 34 35 35 36 36 37 37 38 38 38 39 39 40 40 41 42 43 44 45 46 46 47 47 48 48 49 49 50 51 52 53
112 110 108 106 104 102 100 98 95 93 91 89 87 85 83 81 79 77 76 74 71 69 67 65 62 59 57 55 53 51 50 49 48 47 45 44 43 41 40 38 37 36 34 33 32 32 32 31 31 31 31 32 33 33 34 34 35 36 36 37 37 38 39 39 39 39 40 40 41 42 43 44 45 46 46 47 48 48 49 49 49 50 51 52 53 54
106 105 103 101 99 97 95 93 91 89 87 85 83 81 79 77 75 73 72 70 68 66 63 61 59 56 54 52 51 49 48 47 46 45 44 43 42 40 39 37 36 35 34 33 32 32 32 32 32 32 32 32 33 34 35 35 36 36 37 37 38 39 39 39 40 40 40 41 42 43 44 45 45 46 47 48 48 49 49 50 51 51 52 54 55 56
101 100 98 96 94 92 90 88 86 84 82 80 79 77 75 73 72 70 68 66 64 62 60 58 55 53 51 50 49 48 47 46 45 44 43 42 40 39 38 37 35 34 33 32 32 32 32 32 32 32 33 33 34 35 35 36 36 37 37 38 38 39 39 40 40 40 41 42 43 43 44 45 46 47 48 48 49 50 50 51 52 53 54 55 56 57
97 95 93 91 89 87 86 84 82 80 78 76 75 73 72 70 69 67 65 63 61 59 57 55 52 51 49 48 47 46 46 45 44 43 42 41 40 38 37 36 35 34 33 32 32 32 32 33 33 34 34 34 34 35 36 36 37 37 38 38 38 39 39 40 41 41 42 42 43 44 45 45 46 47 48 49 49 50 51 52 53 54 55 56 56 57
92 91 89 87 85 83 81 80 78 76 74 73 71 70 68 67 65 63 62 60 58 56 54 52 50 48 47 47 46 45 44 44 43 42 41 40 39 38 37 36 35 34 33 32 32 32 32 33 34 34 35 35 35 35 36 36 37 37 38 38 39 39 40 40 41 42 42 43 44 45 45 46 47 47 48 49 50 52 53 54 55 55 56 56 57 57
Wind_Direction
293 294 294 294 294 295 295 296 297 297 298 299 300 301 302 303 304 304 305 305 306 307 307 308 308 309 309 310 310 310 311 312 312 313 314 314 315 316 316 317 318 318 319 320 321 322 323 324 324 324 324 324 324 323 323 323 322 322 321 320 320 319 318 316 315 313 312 310 308 307 305 304 302 300 298 296 294 291 290 289 288 288 288 289 290 290
292 293 293 293 294 294 295 296 296 297 298 299 300 301 302 302 303 304 304 305 305 306 307 307 308 308 309 309 310 310 311 311 312 313 313 314 315 315 316 317 317 318 319 320 321 322 323 323 324 324 324 323 323 323 322 322 322 321 320 320 319 318 316 315 313 312 310 308 307 305 304 302 300 298 296 293 291 289 288 287 287 287 288 289 289 290
291 292 292 293 293 294 295 296 297 297 298 299 300 300 301 302 302 303 304 304 305 305 306 307 307 308 308 309 309 310 310 311 311 312 313 314 314 315 316 316 317 318 319 320 321 322 323 323 323 323 323 323 322 322 322 321 321 320 319 319 317 316 315 314 312 310 309 307 305 303 302 300 298 296 293 290 288 287 286 286 286 287 287 288 289 290
291 291 292 292 293 294 295 296 296 297 298 298 299 300 300 301 302 302 303 303 304 305 305 306 306 307 308 308 309 309 310 310 311 312 312 313 314 315 315 316 317 318 319 320 321 322 322 323 323 323 322 322 322 321 321 321 320 319 319 318 316 315 314 312 310 309 307 305 303 301 300 297 295 293 290 288 286 285 284 285 285 286 287 288 289 289
290 291 292 292 293 294 295 295 296 297 297 298 299 299 300 300 301 302 302 303 304 304 305 305 306 307 307 308 308 309 310 310 311 312 312 313 314 314 315 316 317 318 319 320 321 322 322 322 322 322 322 321 321 321 320 320 319 318 317 316 315 314 312 311 309 307 305 303 301 299 297 295 292 290 287 285 284 284 284 284 284 285 286 287 287 288
290 291 291 292 293 293 294 295 295 296 297 297 298 298 299 300 300 301 302 302 303 304 304 305 306 306 307 308 308 309 309 310 311 311 312 313 313 314 315 316 317 318 319 320 321 322 322 322 322 321 321 321 320 320 319 319 318 317 316 315 314 312 311 309 307 305 303 301 299 297 294 292 289 287 285 283 283 282 283 283 284 285 286 286 287 287
290 290 291 292 292 293 293 294 295 295 296 297 297 298 299 299 300 301 301 302 303 303 304 305 305 306 307 307 308 308 309 310 310 311 312 313 313 314 315 316 317 318 319 320 321 321 321 321 321 321 320 320 320 319 319 318 317 316 315 314 312 311 309 307 305 303 301 299 297 294 291 288 286 284 283 282 281 281 282 283 283 284 285 285 286 286
289 290 291 291 292 292 293 294 294 295 295 296 297 297 298 299 300 300 301 302 302 303 304 304 305 306 306 307 308 308 309 309 310 311 312 312 313 314 315 316 317 318 319 320 321 321 321 321 320 320 320 319 319 318 318 317 316 315 314 312 311 309 307 305 303 301 299 297 294 291 288 286 283 282 281 280 280 281 281 282 283 283 284 284 285 285
288 289 290 290 291 292 292 293 294 294 295 296 296 297 298 298 299 300 301 301 302 303 303 304 305 305 306 307 307 308 308 309 310 311 312 312 313 314 315 317 317 318 319 320 320 320 320 320 320 319 319 319 318 317 317 316 315 314 312 311 309 307 305 303 301 299 297 294 291 288 285 283 281 280 279 279 279 280 281 282 282 283 283 283 284 284
288 288 289 290 291 291 292 292 293 294 295 295 296 297 297 298 299 299 300 301 301 302 303 304 304 305 306 306 307 308 308 309 310 311 312 312 313 315 316 317 317 318 319 319 320 320 320 319 319 319 318 318 317 316 316 315 313 312 311 309 307 306 304 302 299 297 294 291 288 285 283 280 279 278 278 278 279 280 281 281 282 282 282 282 282 283
287 288 289 289 290 291 291 292 293 293 294 295 296 296 297 297 298 299 299 300 301 302 302 303 304 305 305 306 307 308 308 309 310 311 312 313 314 315 316 317 317 318 319 319 319 319 319 319 318 318 317 317 316 315 314 313 312 310 309 307 306 304 302 300 297 295 292 289 286 283 280 279 277 277 277 277 278 279 280 281 281 281 281 281 281 282
287 288 288 289 290 290 291 292 292 293 294 294 295 296 296 297 298 298 299 300 300 301 302 303 304 304 305 306 307 307 308 309 310 311 312 313 314 315 316 317 317 318 318 319 319 318 318 318 317 317 317 316 315 314 313 312 310 309 307 306 304 302 300 297 295 292 289 286 283 281 278 277 276 276 276 277 278 279 280 280 280 280 280 280 281 281
287 287 288 288 289 290 290 291 292 293 293 294 295 295 296 297 297 298 299 299 300 301 302 302 303 304 305 306 306 307 308 309 310 311 312 313 314 315 316 316 317 318 318 318 318 318 317 317 317 316 316 315 314 313 312 310 309 307 306 304 302 300 298 295 292 289 286 283 281 278 277 276 275 275 276 277 278 279 279 279 280 279 279 279 280 280
286 287 287 288 289 289 290 291 291 292 293 293 294 295 295 296 297 298 298 299 300 301 301 302 303 304 305 305 306 307 308 309 310 311 312 313 314 315 316 316 317 317 317 317 317 317 317 316 316 315 315 314 313 312 310 309 307 305 304 302 300 298 295 293 290 287 283 281 278 276 275 274 274 275 276 277 277 278 278 278 278 278 278 278 279 279
286 286 287 288 288 289 290 290 291 292 292 293 294 294 295 296 297 297 298 299 300 301 301 302 303 304 304 305 306 307 308 309 310 311 312 313 314 315 315 316 317 317 317 317 316 316 316 315 315 314 314 313 311 310 309 307 305 304 302 300 298 296 293 290 287 284 281 278 276 275 274 273 274 274 275 276 277 277 277 277 277 277 277 277 278 278
285 286 287 287 288 289 289 290 290 291 292 292 293 294 295 295 296 297 298 299 299 300 301 302 303 303 304 305 306 307 308 309 310 311 312 313 314 314 315 316 316 316 316 316 316 315 315 314 314 313 312 311 310 309 307 305 304 302 300 298 296 293 291 287 284 281 278 276 274 273 272 272 273 274 274 275 276 276 277 277 276 276 276 276 277 277
285 285 286 287 287 288 289 289 290 291 291 292 293 294 294 295 296 297 298 298 299 300 301 302 302 303 304 305 306 307 308 309 310 311 312 313 314 314 315 315 315 315 315 315 315 314 314 314 313 312 311 310 309 307 306 304 302 300 298 296 293 291 288 284 281 278 276 274 272 272 271 271 272 273 274 274 275 275 275 275 275 276 276 276 276 277
284 285 286 286 287 287 288 289 290 290 291 292 293 293 294 295 296 297 297 298 299 300 301 301 302 303 304 306 307 307 308 309 310 311 312 313 313 314 315 315 315 315 314 314 314 314 313 312 312 311 310 308 307 306 304 302 300 298 296 294 291 288 285 282 278 276 274 272 271 270 270 271 272 272 273 274 274 274 274 274 275 275 275 275 276 276
284 285 285 286 286 287 288 289 289 290 291 292 292 293 294 295 296 296 297 298 299 300 301 302 302 303 304 306 307 307 308 309 310 311 312 313 313 314 314 314 314 314 314 313 313 313 312 311 311 310 308 307 305 304 302 300 298 296 294 291 288 285 282 279 276 273 271 270 270 269 270 270 271 272 272 273 273 273 274 274 274 274 275 275 276 276
283 284 285 285 286 287 287 288 289 290 291 292 292 293 294 295 295 296 297 298 299 300 301 302 303 304 305 306 306 307 308 309 310 311 312 312 313 313 313 313 313 313 313 313 312 312 311 310 309 308 307 305 304 302 301 299 297 294 292 289 286 282 279 276 273 271 270 269 269 269 269 270 271 271 272 272 272 273 273 273 274 274 274 275 275 276
283 284 284 285 286 286 287 288 289 290 291 291 292 293 294 295 295 296 297 298 299 300 301 302 303 304 305 306 306 307 308 309 310 311 312 312 313 313 313 313 312 312 312 312 311 311 310 309 308 307 305 304 302 301 299 297 295 292 289 286 283 279 276 273 271 270 268 268 268 268 269 270 270 271 271 271 272 272 273 273 273 274 274 275 276 277
283 283 284 285 286 286 287 288 289 290 291 292 292 293 294 295 296 297 298 298 299 300 301 302 303 304 304 305 306 307 308 309 310 311 311 312 312 312 312 312 312 311 311 311 310 310 309 308 306 305 304 302 301 299 297 295 292 290 287 283 280 277 274 271 269 268 267 267 267 268 268 269 270 270 270 271 271 272 272 273 273 274 275 275 276 277
282 283 284 285 286 287 287 288 289 290 291 292 293 293 294 295 296 297 298 299 299 300 301 302 303 303 304 305 306 307 308 309 310 310 311 311 311 311 311 311 311 311 310 310 309 308 307 306 305 304 302 301 299 297 295 293 290 287 284 281 277 274 271 269 268 267 267 267 267 268 268 268 269 269 270 270 271 271 272 273 274 274 275 276 277 277
283 283 284 285 286 287 288 288 289 290 291 292 293 294 294 295 296 297 298 298 299 300 301 302 302 303 304 305 306 307 308 309 310 310 310 311 311 311 310 310 310 310 309 309 308 307 306 305 303 302 301 299 297 296 293 291 288 285 281 278 275 272 270 268 267 266 266 266 266 267 268 268 268 269 269 270 270 272 272 273 274 275 275 276 277 278
283 283 284 285 286 287 288 289 289 290 291 292 293 294 294 295 296 297 298 298 299 300 301 302 303 303 304 305 306 307 308 309 309 310 310 310 310 310 310 309 309 309 308 308 307 306 304 303 302 301 299 298 296 294 291 289 286 282 279 276 273 270 268 266 266 265 266 266 266 267 267 268 268 269 269 270 271 271 272 273 274 275 276 277 277 278
283 284 284 285 286 287 288 289 290 290 291 292 293 294 294 295 296 297 298 298 299 300 301 302 302 303 304 305 306 307 308 308 309 309 309 309 309 309 309 308 308 308 307 306 305 304 303 302 300 299 298 296 294 292 289 286 283 280 277 274 271 269 267 266 265 265 265 266 266 267 267 268 268 269 269 270 271 272 273 274 275 276 276 277 278 279
283 284 285 285 286 287 288 289 290 290 291 292 293 294 294 295 296 297 298 298 299 300 301 302 302 303 304 305 306 307 307 308 308 308 308 308 308 308 308 308 307 307 306 305 304 303 302 300 299 298 296 294 292 290 287 284 281 278 275 272 270 268 266 266 265 265 265 266 266 267 267 268 268 269 269 270 271 272 273 274 275 276 277 277 278 279
283 284 285 285 286 287 288 289 290 290 291 292 293 294 294 295 296 297 298 298 299 300 301 302 303 304 305 305 306 307 307 307 307 307 308 307 307 307 307 307 306 305 305 304 303 301 300 299 298 296 295 293 290 288 285 282 279 276 273 271 269 267 266 265 265 265 266 266 266 267 267 268 268 269 269 270 271 273 274 275 276 277 277 278 279 279
283 284 285 286 287 287 288 289 290 291 291 292 293 294 294 295 296 297 297 298 299 300 301 302 303 304 304 305 306 306 306 307 307 307 307 307 306 306 306 306 305 304 303 302 301 300 299 298 296 295 293 291 289 286 283 280 277 274 272 270 268 267 266 266 265 265 266 266 267 267 267 268 268 269 270 270 272 273 274 275 276 277 278 279 279 279
283 284 285 286 287 288 289 289 290 291 291 292 293 293 294 295 296 296 297 298 299 300 301 302 303 304 304 305 305 306 306 306 306 306 306 306 306 305 305 304 304 303 302 301 300 299 298 296 295 293 291 289 287 284 281 278 276 273 271 269 267 266 266 266 266 266 266 266 266 267 267 267 268 269 270 271 272 274 275 276 277 278 279 279 279 280
284 285 286 286 287 288 288 289 290 290 291 292 292 293 294 295 295 296 297 298 299 300 301 302 303 303 304 304 305 305 305 305 305 305 305 305 304 304 304 303 302 302 301 299 298 297 296 295 294 291 289 287 285 282 279 277 274 272 270 268 267 266 266 266 266 266 266 266 266 266 267 267 268 269 270 271 273 275 276 277 278 279 279 280 280 280
284 285 285 286 287 287 288 289 289 290 291 291 292 293 294 294 295 296 297 298 299 300 301 302 302 303 303 304 304 304 304 304 304 304 304 304 304 303 303 302 301 300 299 298 297 296 295 293 292 290 288 285 282 280 277 275 273 271 269 268 267 266 266 266 266 265 265 265 266 266 266 267 268 269 270 272 274 276 277 278 279 280 280 280 281 281
283 284 285 285 286 287 287 288 289 289 290 291 292 293 294 294 295 296 297 298 299 300 301 301 302 303 303 303 304 304 304 304 303 303 303 303 302 302 301 301 300 299 298 297 296 295 293 292 290 288 286 283 280 278 276 273 271 270 268 267 266 266 266 265 265 265 265 265 265 266 266 267 268 270 272 274 275 277 278 279 280 281 281 281 281 282
283 283 284 285 285 286 287 288 288 289 290 291 292 293 294 295 296 296 297 298 299 300 300 301 302 302 302 303 303 303 303 303 303 303 302 302 301 301 300 299 298 297 297 296 295 294 292 291 289 286 284 281 279 276 274 272 270 269 268 266 266 265 265 265 265 265 265 265 266 266 267 269 270 272 274 275 277 278 279 280 281 281 281 282 282 283
282 283 284 284 285 286 287 287 288 289 290 291 292 293 294 295 296 296 297 298 299 299 300 301 301 301 302 302 302 302 302 302 302 301 301 301 300 300 299 298 297 296 295 294 293 292 291 289 287 285 282 280 277 275 273 271 269 268 267 266 266 265 265 265 265 265 265 266 267 268 269 271 272 274 275 277 278 280 281 281 282 282 282 282 283 284
282 283 283 284 285 286 287 287 288 289 290 291 292 293 294 295 296 296 297 298 298 299 300 300 301 301 301 301 301 301 301 301 301 300 300 299 299 298 297 297 296 295 294 293 292 290 289 287 285 283 281 278 276 274 272 270 269 268 267 266 265 265 265 266 266 266 267 268 268 270 271 273 274 275 277 278 280 281 282 282 282 282 283 283 284 285
282 283 283 284 285 286 287 288 289 289 290 291 292 293 294 295 295 296 297 297 298 299 299 300 300 300 300 300 300 300 300 300 300 299 299 298 298 297 296 295 294 293 292 291 290 288 287 285 283 281 279 276 274 273 271 270 268 267 266 266 266 266 266 266 267 268 268 269 270 272 273 274 276 277 279 280 281 282 282 283 282 283 283 284 285 286
282 283 283 284 285 286 287 288 289 289 290 291 292 293 294 295 295 296 296 297 298 298 299 299 299 299 299 299 299 299 299 299 298 298 297 297 296 295 295 294 293 292 291 289 288 286 285 283 281 279 278 276 274 272 270 269 267 266 266 266 266 267 267 268 269 269 270 271 272 273 275 276 277 279 281 282 282 283 283 283 283 283 284 285 285 286
282 283 283 284 285 286 287 288 289 289 290 291 292 293 294 294 295 296 296 297 297 298 298 298 298 298 298 298 298 298 298 298 297 297 296 295 295 294 293 292 292 291 289 288 286 284 283 281 279 278 277 275 273 271 270 268 267 266 266 267 267 267 268 269 270 271 272 272 273 275 276 278 279 281 282 283 283 283 283 283 283 284 285 286 286 287
282 283 283 284 285 286 287 288 288 289 290 291 292 293 293 294 295 295 296 296 297 297 297 297 298 297 297 297 297 297 297 296 296 295 295 294 293 293 292 291 290 289 288 286 284 282 281 279 278 277 275 274 272 271 269 268 267 267 267 267 267 268 269 270 271 272 273 274 275 276 278 279 281 282 283 283 283 283 283 283 284 285 285 286 287 288
282 283 283 284 285 286 287 288 288 289 290 291 292 293 293 294 294 295 295 296 296 296 296 296 296 296 296 296 296 296 295 295 294 294 293 292 292 291 291 290 289 287 286 284 282 281 279 278 276 276 274 273 272 271 270 269 268 268 268 268 269 270 271 272 273 274 275 276 277 278 280 281 282 283 283 283 283 283 283 284 285 286 286 287 288 289
282 282 283 284 285 286 287 287 288 289 290 291 292 292 293 293 294 294 295 295 295 295 295 295 295 295 295 295 295 295 294 294 293 292 292 291 291 290 290 289 287 286 284 282 281 279 277 276 275 274 273 272 272 271 270 269 269 269 269 270 270 272 273 273 274 275 277 278 279 280 281 282 283 283 283 283 283 283 284 285 286 286 287 288 289 290
281 282 283 284 285 286 287 287 288 289 290 291 291 292 292 293 293 294 294 294 294 294 294 294 294 294 294 294 293 293 293 292 291 291 290 290 289 289 288 287 286 284 283 281 279 278 276 275 274 273 272 272 271 270 270 270 270 270 271 271 272 273 274 275 276 277 278 280 281 282 282 282 282 282 282 282 283 284 285 286 286 287 288 290 291 291
281 282 283 284 285 286 287 287 288 289 290 290 291 291 292 292 292 293 293 293 293 293 293 293 293 293 293 292 292 292 291 291 290 289 289 288 288 287 287 286 285 283 281 279 278 276 275 274 273 272 271 271 271 271 271 271 271 272 272 273 274 274 275 277 278 279 280 281 281 282 282 282 282 282 282 283 284 285 286 287 288 289 290 291 291 292
281 282 283 284 285 286 286 287 288 289 289 290 291 291 291 291 292 292 291 291 291 292 292 292 292 292 291 291 291 290 289 289 288 288 288 287 287 286 285 284 283 281 280 278 276 275 273 273 272 272 271 271 271 271 271 272 273 273 274 275 275 276 277 278 279 280 280 281 282 282 282 282 282 282 283 284 285 286 287 288 289 290 291 292 292 293
281 282 283 284 285 286 286 287 288 288 289 289 290 290 290 290 290 290 290 290 290 290 291 291 291 290 290 290 289 289 288 288 287 287 286 286 285 285 284 283 281 280 278 276 275 273 272 271 271 271 271 271 271 271 272 273 273 274 275 275 276 276 277 278 279 279 280 281 282 281 281 281 282 283 284 285 286 287 288 289 290 291 292 293 293 294
281 282 283 284 285 285 286 287 287 288 288 289 289 289 289 289 289 289 289 289 289 289 289 289 289 289 289 288 288 287 287 286 286 286 285 285 284 283 282 281 279 278 276 275 273 272 271 270 270 270 271 271 271 272 272 273 274 274 275 276 276 277 277 278 279 279 280 280 280 281 281 282 283 284 285 286 287 288 289 290 291 292 293 293 294 295
281 282 283 284 284 285 286 286 287 287 288 288 288 288 288 288 288 288 288 288 288 288 288 288 288 288 287 287 286 286 286 285 285 284 284 283 283 282 280 279 278 277 275 274 272 271 270 269 269 269 270 271 271 272 273 273 274 274 275 276 276 277 277 278 279 279 279 279 280 280 281 282 283 285 286 287 288 289 290 291 292 293 293 294 295 296
281 282 283 283 284 285 285 286 286 286 287 287 287 287 287 287 287 286 287 287 287 287 287 287 287 286 286 285 285 285 284 284 284 283 283 282 281 280 279 278 276 275 274 273 272 270 269 269 268 268 269 270 271 272 273 273 274 275 276 276 277 277 278 278 278 279 279 279 280 281 282 283 284 286 287 288 289 290 291 292 293 293 294 295 296 297
281 281 282 283 284 284 285 285 285 285 285 285 285 285 285 285 285 285 286 286 286 286 286 285 285 285 284 284 284 283 283 283 283 282 281 281 280 279 277 276 275 274 273 272 271 270 269 269 268 268 268 268 270 271 273 274 275 276 277 277 278 278 278 278 278 279 279 280 281 282 283 284 286 287 288 289 290 291 292 292 293 294 295 296 297 297
280 281 282 282 283 283 284 284 284 284 284 284 284 284 284 284 284 284 284 284 284 284 284 284 284 283 283 282 282 282 282 282 281 281 280 279 279 277 276 275 273 272 271 270 269 268 268 268 268 268 268 269 269 271 273 275 276 277 278 278 278 278 278 278 279 279 280 281 283 284 285 286 287 288 289 290 291 292 292 293 294 296 297 297 298 298
Height
10616 10615 10615 10614 10613 10611 10610 10609 10608 10606 10604 10602 10601 10600 10598 10596 10595 10593 10591 10590 10588 10586 10585 10583 10580 10578 10576 10574 10571 10569 10566 10563 10561 10559 10556 10555 10552 10550 10547 10544 10540 10537 10533 10530 10526 10522 10518 10514 10510 10506 10502 10498 10495 10491 10487 10483 10480 10477 10475 10471 10469 10467 10465 10463 10461 10459 10458 10456 10455 10454 10453 10452 10451 10451 10450 10450 10450 10450 10449 10449 10449 10449 10449 10449 10449 10449
10612 10611 10610 10609 10608 10607 10605 10603 10603 10602 10600 10598 10596 10595 10594 10592 10590 10588 10586 10585 10583 10582 10580 10578 10576 10574 10572 10570 10567 10565 10562 10559 10556 10554 10552 10550 10548 10545 10542 10539 10536 10532 10529 10525 10521 10518 10513 10510 10506 10501 10498 10494 10490 10486 10483 10480 10476 10473 10471 10468 10466 10463 10461 10460 10458 10456 10455 10453 10452 10451 10450 10450 10449 10448 10448 10448 10448 10448 10447 10447 10447 10447 10447 10447 10447 10447
10607 10606 10604 10603 10603 10602 10600 10598 10597 10596 10595 10594 10592 10591 10590 10588 10586 10584 10583 10581 10579 10577 10575 10574 10572 10570 10568 10565 10563 10560 10558 10555 10552 10550 10547 10545 10543 10540 10538 10535 10531 10528 10525 10521 10516 10513 10509 10505 10501 10497 10493 10489 10485 10482 10478 10475 10472 10470 10467 10465 10462 10460 10458 10456 10455 10453 10452 10451 10450 10448 10448 10447 10446 10446 10446 10446 10446 10446 10446 10445 10445 10445 10445 10445 10445 10445
10602 10601 10599 10598 10598 10596 10595 10594 10593 10591 10590 10589 10588 10586 10585 10584 10582 10580 10578 10577 10575 10573 10571 10569 10568 10566 10563 10561 10558 10556 10553 10550 10548 10545 10543 10540 10538 10535 10533 10530 10526 10523 10520 10516 10512 10508 10505 10500 10496 10492 10488 10485 10481 10478 10475 10471 10468 10466 10463 10461 10458 10456 10455 10453 10451 10450 10449 10448 10447 10446 10445 10445 10445 10444 10444 10444 10444 10444 10444 10443 10443 10443 10443 10443 10443 10443
10597 10596 10594 10593 10592 10591 10590 10589 10588 10586 10585 10585 10583 10582 10581 10580 10578 10576 10574 10572 10571 10569 10567 10565 10563 10561 10559 10556 10553 10551 10548 10546 10543 10541 10538 10536 10533 10530 10528 10525 10521 10518 10515 10511 10507 10503 10500 10496 10491 10488 10484 10480 10476 10473 10470 10467 10465 10462 10460 10457 10455 10453 10451 10450 10449 10448 10446 10445 10445 10444 10443 10443 10442 10442 10442 10442 10442 10442 10442 10441 10441 10441 10441 10441 10441 10441
10591 10590 10590 10588 10587 10586 10585 10584 10583 10582 10581 10579 10578 10577 10576 10575 10573 10571 10570 10568 10566 10564 10562 10560 10558 10556 10555 10552 10549 10546 10543 10540 10538 10536 10534 10531 10528 10526 10523 10520 10516 10513 10510 10506 10502 10498 10495 10491 10487 10483 10480 10476 10472 10469 10466 10463 10461 10458 10456 10454 10452 10450 10448 10447 10446 10445 10444 10443 10442 10441 10441 10440 10440 10440 10440 10440 10440 10440 10440 10440 10440 10440 10440 10440 10440 10440
10586 10585 10585 10583 10582 10581 10580 10579 10578 10578 10576 10575 10573 10571 10570 10570 10568 10566 10565 10563 10561 10560 10557 10555 10553 10551 10550 10548 10545 10541 10538 10535 10533 10530 10528 10526 10523 10520 10518 10515 10511 10508 10505 10501 10497 10494 10490 10486 10482 10478 10475 10471 10468 10465 10462 10460 10457 10455 10453 10450 10448 10447 10445 10444 10443 10442 10441 10440 10440 10439 10438 10438 10438 10438 10438 10438 10438 10438 10438 10438 10438 10438 10438 10438 10438 10438
10582 10580 10579 10578 10577 10576 10575 10573 10573 10573 10572 10570 10568 10566 10565 10563 10562 10561 10560 10558 10557 10555 10553 10550 10547 10545 10544 10543 10540 10537 10534 10531 10528 10525 10523 10520 10518 10515 10512 10510 10506 10503 10499 10496 10493 10489 10485 10481 10478 10474 10470 10467 10464 10461 10458 10455 10453 10451 10449 10447 10445 10444 10443 10441 10440 10440 10438 10438 10437 10436 10436 10436 10436 10436 10436 10436 10436 10436 10436 10436 10436 10436 10436 10436 10436 10436
10578 10576 10574 10573 10572 10571 10570 10568 10566 10566 10566 10565 10563 10561 10560 10558 10556 10555 10553 10552 10551 10550 10548 10546 10543 10540 10538 10536 10534 10531 10529 10526 10523 10521 10518 10516 10513 10510 10508 10505 10501 10497 10494 10491 10487 10484 10480 10476 10473 10470 10466 10463 10460 10457 10454 10451 10450 10448 10446 10444 10442 10441 10440 10438 10438 10436 10436 10435 10435 10435 10434 10434 10434 10434 10434 10434 10434 10434 10434 10434 10434 10434 10434 10434 10434 10433
10573 10571 10570 10568 10566 10566 10565 10564 10561 10561 10560 10560 10558 10557 10556 10555 10553 10550 10548 10545 10544 10543 10542 10541 10538 10536 10534 10531 10528 10525 10523 10521 10518 10515 10513 10510 10508 10506 10503 10500 10496 10493 10490 10486 10483 10479 10475 10471 10468 10465 10461 10458 10455 10453 10450 10448 10446 10444 10442 10440 10439 10438 10436 10436 10435 10434 10433 10433 10433 10432 10432 10432 10432 10432 10432 10432 10432 10432 10432 10432 10432 10432 10432 10432 10431 10431
10568 10566 10565 10564 10562 10560 10560 10559 10557 10556 10555 10555 10553 10551 10550 10549 10548 10547 10545 10541 10538 10536 10536 10534 10533 10531 10529 10527 10524 10521 10518 10516 10513 10510 10508 10505 10502 10500 10498 10495 10491 10488 10485 10481 10478 10474 10471 10467 10463 10460 10457 10454 10451 10449 10446 10444 10442 10440 10438 10437 10436 10435 10434 10433 10432 10431 10431 10430 10430 10430 10430 10430 10430 10430 10430 10430 10430 10430 10430 10430 10430 10430 10430 10430 10430 10430
10563 10561 10561 10559 10557 10555 10554 10553 10552 10551 10550 10550 10548 10546 10543 10542 10541 10541 10540 10537 10534 10532 10531 10529 10527 10525 10523 10521 10520 10517 10514 10511 10508 10506 10503 10500 10498 10495 10492 10489 10485 10482 10479 10476 10472 10469 10466 10462 10459 10456 10453 10450 10447 10445 10443 10440 10438 10436 10435 10434 10433 10431 10431 10430 10430 10429 10428 10428 10428 10428 10428 10428 10428 10428 10428 10428 10428 10428 10428 10428 10428 10428 10428 10428 10428 10428
10558 10557 10556 10555 10553 10551 10550 10548 10546 10545 10545 10543 10543 10541 10539 10537 10536 10535 10534 10531 10529 10527 10526 10525 10523 10520 10518 10516 10515 10512 10510 10506 10503 10501 10498 10496 10493 10491 10488 10485 10480 10477 10474 10471 10468 10464 10461 10457 10454 10451 10448 10446 10443 10441 10439 10436 10435 10433 10432 10431 10430 10428 10428 10427 10426 10426 10426 10426 10426 10426 10426 10426 10426 10426 10426 10426 10426 10426 10426 10426 10426 10426 10426 10426 10425 10425
10553 10552 10551 10549 10547 10546 10545 10543 10541 10540 10539 10538 10537 10536 10534 10533 10531 10530 10528 10526 10524 10521 10521 10520 10518 10516 10513 10511 10510 10508 10506 10502 10498 10495 10493 10491 10488 10486 10483 10480 10476 10472 10469 10466 10463 10459 10456 10453 10450 10446 10444 10441 10439 10437 10435 10433 10431 10430 10428 10428 10426 10426 10425 10425 10424 10424 10423 10423 10423 10423 10423 10423 10423 10423 10424 10424 10424 10424 10424 10424 10424 10424 10423 10423 10423 10423
10548 10547 10546 10544 10542 10541 10540 10538 10537 10535 10533 10532 10531 10531 10530 10528 10526 10524 10523 10521 10519 10517 10516 10515 10513 10510 10508 10506 10505 10504 10502 10499 10495 10491 10488 10486 10483 10481 10478 10475 10471 10467 10464 10461 10458 10455 10451 10448 10445 10442 10440 10438 10435 10433 10431 10430 10428 10426 10425 10425 10423 10423 10422 10421 10421 10421 10421 10421 10421 10421 10421 10421 10421 10421 10421 10421 10421 10422 10422 10422 10421 10421 10421 10421 10421 10421
10543 10542 10541 10539 10537 10536 10534 10533 10532 10530 10529 10527 10526 10526 10525 10523 10521 10519 10518 10516 10514 10512 10511 10510 10508 10505 10503 10500 10498 10497 10496 10495 10491 10486 10483 10481 10479 10476 10473 10470 10466 10463 10459 10456 10453 10450 10446 10443 10441 10438 10436 10433 10431 10429 10428 10426 10425 10423 10422 10421 10420 10420 10419 10419 10419 10418 10418 10419 10419 10419 10419 10419 10419 10420 10420 10420 10420 10420 10420 10420 10420 10420 10420 10419 10419 10419
10538 10537 10536 10534 10533 10531 10529 10528 10526 10525 10524 10523 10521 10521 10520 10518 10516 10515 10513 10511 10509 10508 10506 10504 10503 10501 10498 10496 10493 10491 10490 10489 10486 10481 10478 10476 10473 10471 10468 10465 10461 10458 10455 10451 10448 10445 10442 10439 10436 10434 10431 10429 10427 10425 10424 10422 10421 10420 10419 10418 10417 10417 10416 10416 10416 10416 10416 10416 10416 10416 10417 10417 10417 10417 10417 10418 10418 10418 10418 10418 10418 10417 10417 10417 10417 10416
10532 10531 10531 10530 10528 10526 10525 10523 10521 10520 10518 10518 10516 10515 10514 10513 10511 10510 10508 10506 10504 10503 10501 10499 10497 10495 10493 10491 10489 10486 10485 10483 10481 10477 10473 10471 10468 10466 10463 10460 10456 10453 10450 10446 10443 10440 10438 10435 10432 10430 10427 10425 10423 10421 10420 10419 10418 10416 10416 10415 10415 10414 10414 10414 10413 10414 10414 10414 10414 10415 10415 10415 10415 10415 10415 10415 10415 10415 10415 10415 10415 10415 10415 10415 10415 10414
10527 10526 10525 10524 10523 10521 10520 10518 10516 10515 10514 10513 10511 10510 10509 10507 10506 10504 10502 10501 10499 10498 10496 10494 10492 10490 10488 10486 10484 10481 10480 10478 10476 10472 10468 10466 10463 10461 10458 10455 10451 10448 10445 10441 10439 10436 10433 10430 10428 10425 10423 10421 10420 10418 10417 10416 10415 10413 10413 10412 10411 10411 10411 10411 10411 10411 10411 10411 10412 10412 10412 10413 10413 10413 10413 10413 10413 10413 10413 10413 10413 10413 10413 10412 10412 10412
10521 10520 10519 10518 10517 10516 10515 10512 10510 10510 10509 10508 10506 10505 10504 10502 10500 10499 10497 10495 10493 10492 10490 10488 10486 10485 10482 10480 10478 10476 10475 10473 10470 10467 10463 10460 10458 10455 10453 10450 10446 10443 10440 10436 10434 10431 10428 10426 10423 10421 10420 10418 10416 10415 10413 10412 10411 10410 10410 10409 10409 10408 10408 10408 10408 10409 10409 10409 10410 10410 10410 10410 10410 10410 10410 10410 10410 10410 10410 10410 10410 10410 10410 10410 10410 10410
10516 10515 10513 10512 10511 10511 10510 10507 10505 10504 10503 10503 10501 10500 10498 10496 10495 10493 10491 10490 10488 10486 10485 10483 10481 10479 10477 10475 10473 10471 10470 10468 10465 10462 10458 10455 10452 10450 10447 10445 10441 10438 10435 10432 10430 10426 10424 10421 10419 10417 10415 10414 10412 10411 10410 10409 10408 10407 10406 10406 10406 10406 10406 10406 10406 10406 10406 10407 10407 10407 10408 10408 10408 10408 10408 10408 10408 10408 10408 10408 10408 10408 10408 10407 10407 10406
10511 10509 10507 10506 10505 10505 10504 10502 10500 10499 10498 10497 10496 10495 10493 10491 10490 10488 10486 10484 10482 10481 10479 10478 10476 10474 10472 10471 10469 10467 10465 10463 10460 10457 10454 10450 10447 10444 10441 10439 10436 10433 10430 10427 10425 10422 10420 10417 10415 10413 10411 10410 10409 10408 10406 10406 10405 10405 10404 10403 10403 10403 10403 10403 10403 10404 10404 10405 10405 10405 10405 10405 10405 10405 10406 10405 10405 10405 10405 10405 10405 10405 10405 10405 10404 10404
10505 10503 10502 10501 10500 10499 10498 10497 10495 10493 10492 10491 10490 10489 10488 10486 10485 10483 10481 10479 10477 10476 10475 10473 10471 10469 10467 10465 10464 10461 10460 10457 10455 10452 10448 10445 10442 10439 10436 10434 10431 10428 10425 10423 10420 10418 10415 10413 10411 10409 10408 10406 10405 10404 10403 10403 10402 10401 10401 10401 10401 10401 10401 10401 10401 10401 10401 10402 10402 10402 10403 10403 10403 10403 10403 10403 10403 10403 10403 10403 10402 10402 10402 10401 10401 10401
10499 10498 10496 10495 10494 10493 10492 10491 10490 10488 10486 10486 10485 10483 10482 10480 10479 10478 10476 10474 10473 10471 10470 10468 10465 10463 10461 10460 10458 10456 10453 10451 10449 10446 10443 10440 10436 10434 10431 10428 10426 10423 10420 10418 10416 10413 10411 10409 10407 10405 10404 10403 10401 10401 10400 10399 10399 10398 10398 10398 10398 10398 10398 10398 10398 10399 10399 10400 10400 10400 10400 10400 10400 10400 10400 10400 10400 10400 10400 10400 10400 10400 10399 10399 10398 10398
10493 10491 10490 10489 10488 10487 10486 10485 10484 10482 10481 10480 10479 10478 10476 10475 10473 10471 10470 10468 10467 10466 10465 10462 10460 10458 10456 10455 10453 10451 10448 10446 10443 10441 10438 10435 10431 10428 10425 10423 10421 10418 10415 10413 10411 10409 10407 10405 10403 10401 10400 10399 10398 10397 10396 10396 10396 10395 10395 10395 10395 10395 10395 10396 10396 10396 10396 10396 10397 10397 10398 10398 10398 10398 10398 10398 10398 10397 10397 10397 10396 10396 10396 10396 10396 10395
10487 10486 10485 10483 10482 10481 10480 10479 10478 10476 10475 10475 10473 10472 10471 10470 10468 10466 10464 10463 10461 10460 10459 10457 10455 10453 10451 10450 10448 10445 10443 10441 10438 10435 10433 10430 10426 10423 10420 10418 10416 10413 10411 10408 10406 10405 10403 10401 10399 10398 10396 10395 10395 10394 10393 10393 10393 10392 10392 10392 10392 10393 10393 10393 10393 10394 10394 10394 10395 10395 10395 10395 10395 10395 10395 10395 10395 10395 10394 10394 10394 10394 10393 10393 10393 10393
10481 10480 10478 10477 10476 10475 10474 10473 10471 10470 10470 10469 10468 10466 10465 10464 10462 10461 10458 10456 10455 10455 10454 10451 10450 10448 10446 10444 10441 10440 10437 10435 10433 10430 10427 10425 10421 10418 10415 10413 10411 10409 10406 10404 10402 10400 10398 10396 10395 10394 10393 10392 10391 10391 10390 10390 10390 10390 10390 10390 10390 10390 10390 10390 10391 10391 10391 10391 10392 10392 10392 10392 10392 10392 10392 10392 10391 10391 10391 10391 10391 10391 10391 10390 10390 10390
10474 10473 10472 10471 10470 10469 10468 10467 10466 10465 10464 10463 10462 10461 10460 10458 10457 10455 10453 10451 10450 10449 10448 10446 10445 10443 10441 10439 10436 10434 10431 10430 10427 10425 10421 10419 10416 10413 10411 10408 10406 10404 10402 10400 10398 10396 10395 10393 10391 10390 10390 10388 10388 10387 10387 10387 10386 10386 10386 10387 10387 10387 10388 10388 10388 10388 10388 10389 10389 10389 10390 10390 10390 10389 10389 10389 10388 10388 10388 10388 10388 10388 10388 10388 10387 10386
10468 10466 10466 10465 10464 10463 10462 10461 10460 10459 10458 10457 10456 10455 10454 10453 10451 10450 10448 10446 10445 10444 10442 10441 10439 10438 10436 10434 10431 10428 10425 10423 10421 10419 10416 10413 10410 10408 10406 10403 10401 10399 10398 10395 10393 10391 10390 10389 10388 10387 10386 10385 10385 10385 10384 10384 10384 10384 10384 10384 10385 10385 10385 10385 10385 10386 10386 10386 10386 10386 10386 10386 10386 10386 10386 10386 10386 10385 10385 10385 10385 10385 10385 10385 10384 10383
10461 10460 10460 10459 10458 10456 10456 10455 10455 10453 10453 10451 10451 10450 10448 10447 10446 10445 10443 10441 10440 10438 10437 10436 10434 10432 10430 10428 10425 10423 10420 10417 10415 10413 10411 10408 10405 10403 10401 10398 10396 10395 10393 10391 10390 10388 10386 10385 10384 10383 10383 10382 10381 10381 10381 10381 10381 10381 10381 10381 10381 10382 10382 10383 10383 10383 10383 10383 10383 10383 10383 10383 10383 10383 10383 10383 10383 10383 10383 10383 10383 10382 10382 10381 10381 10381
10455 10454 10453 10452 10451 10450 10450 10449 10448 10448 10447 10446 10445 10444 10443 10442 10441 10440 10438 10436 10435 10433 10432 10430 10429 10427 10425 10423 10420 10418 10414 10411 10409 10408 10406 10403 10400 10398 10396 10394 10391 10390 10388 10387 10386 10384 10382 10381 10380 10380 10380 10379 10378 10378 10378 10378 10378 10378 10378 10379 10379 10379 10380 10380 10380 10380 10380 10380 10381 10381 10380 10380 10380 10380 10380 10380 10380 10380 10380 10380 10380 10380 10379 10378 10378 10378
10448 10448 10447 10446 10445 10445 10444 10443 10443 10442 10441 10441 10440 10439 10438 10436 10435 10434 10433 10431 10430 10428 10427 10425 10423 10421 10419 10417 10415 10412 10410 10406 10404 10402 10400 10398 10395 10393 10391 10390 10387 10385 10383 10382 10381 10380 10379 10378 10377 10376 10376 10376 10376 10375 10375 10375 10375 10376 10376 10376 10376 10376 10376 10377 10377 10377 10378 10378 10378 10378 10378 10377 10377 10377 10377 10377 10377 10377 10377 10377 10376 10376 10376 10375 10375 10375
10443 10442 10441 10441 10440 10439 10438 10438 10437 10437 10436 10435 10435 10433 10432 10431 10430 10429 10427 10426 10424 10423 10421 10420 10418 10416 10413 10411 10408 10406 10404 10401 10399 10397 10395 10393 10391 10388 10386 10385 10383 10381 10380 10378 10377 10376 10376 10375 10374 10373 10373 10373 10373 10373 10373 10373 10373 10373 10373 10373 10373 10374 10374 10374 10375 10375 10375 10375 10375 10375 10375 10375 10375 10375 10375 10375 10375 10375 10374 10374 10373 10373 10373 10372 10371 10371
10437 10436 10435 10435 10434 10433 10433 10432 10432 10431 10431 10430 10429 10428 10427 10426 10425 10423 10421 10420 10418 10417 10416 10415 10413 10411 10408 10405 10403 10400 10398 10396 10394 10392 10390 10388 10386 10384 10382 10380 10378 10377 10376 10375 10373 10372 10371 10371 10371 10370 10370 10370 10370 10370 10370 10370 10370 10370 10370 10371 10371 10371 10371 10371 10371 10371 10371 10371 10371 10371 10371 10371 10371 10371 10371 10371 10371 10371 10371 10371 10370 10370 10370 10369 10368 10368
10431 10430 10430 10429 10428 10428 10427 10426 10426 10426 10425 10425 10423 10423 10421 10421 10420 10418 10416 10415 10413 10412 10411 10409 10407 10405 10403 10400 10398 10395 10392 10390 10388 10387 10385 10383 10381 10380 10378 10376 10375 10373 10372 10371 10370 10369 10368 10368 10367 10367 10367 10366 10366 10366 10367 10367 10367 10368 10368 10368 10368 10368 10368 10368 10368 10368 10368 10369 10369 10369 10369 10369 10369 10369 10369 10369 10369 10368 10368 10368 10367 10366 10366 10366 10365 10365
10425 10424 10423 10423 10422 10421 10421 10421 10421 10420 10420 10419 10418 10417 10416 10415 10414 10412 10410 10408 10407 10406 10405 10403 10401 10399 10397 10395 10393 10390 10388 10385 10383 10382 10380 10378 10376 10375 10373 10371 10370 10370 10368 10367 10366 10366 10365 10365 10364 10364 10364 10364 10364 10364 10364 10365 10365 10365 10365 10365 10365 10365 10365 10365 10365 10366 10366 10366 10366 10366 10366 10366 10366 10366 10366 10366 10366 10366 10365 10365 10364 10363 10363 10362 10361 10361
10418 10418 10417 10416 10416 10416 10416 10416 10415 10415 10414 10413 10413 10411 10411 10410 10408 10406 10405 10403 10401 10400 10399 10397 10395 10393 10391 10389 10387 10385 10383 10381 10379 10377 10375 10373 10372 10371 10370 10368 10366 10366 10365 10364 10363 10362 10362 10361 10361 10361 10361 10361 10361 10361 10361 10361 10361 10361 10361 10362 10362 10362 10362 10362 10363 10363 10363 10363 10363 10363 10363 10363 10363 10363 10363 10363 10363 10363 10362 10361 10361 10360 10360 10359 10358 10358
10412 10411 10411 10410 10410 10410 10410 10410 10410 10409 10408 10408 10407 10406 10405 10404 10403 10401 10399 10397 10396 10395 10393 10391 10390 10388 10385 10383 10381 10380 10378 10376 10374 10372 10371 10369 10368 10366 10365 10364 10363 10362 10361 10361 10360 10359 10359 10358 10358 10358 10358 10358 10358 10358 10358 10358 10358 10358 10358 10359 10359 10360 10360 10360 10360 10360 10360 10360 10360 10360 10360 10360 10360 10360 10360 10360 10360 10359 10358 10358 10357 10356 10356 10355 10355 10354
10405 10405 10405 10404 10404 10405 10405 10405 10404 10403 10403 10403 10402 10401 10400 10398 10396 10395 10393 10391 10390 10388 10387 10385 10384 10382 10380 10378 10376 10375 10373 10371 10369 10368 10366 10365 10363 10363 10361 10360 10360 10358 10358 10357 10356 10356 10356 10355 10355 10355 10355 10355 10355 10355 10355 10356 10356 10355 10356 10356 10356 10356 10356 10357 10357 10358 10358 10358 10358 10358 10358 10358 10358 10357 10357 10356 10356 10356 10355 10355 10354 10353 10353 10352 10351 10350
10399 10398 10398 10398 10398 10399 10400 10400 10399 10398 10398 10397 10396 10395 10394 10393 10391 10389 10387 10385 10384 10383 10381 10380 10378 10376 10375 10373 10371 10370 10368 10366 10365 10363 10361 10360 10360 10358 10358 10356 10356 10355 10355 10354 10353 10353 10353 10353 10352 10352 10353 10353 10352 10352 10352 10353 10353 10353 10353 10353 10353 10353 10354 10355 10355 10355 10355 10355 10355 10355 10355 10355 10355 10354 10354 10353 10353 10352 10351 10351 10350 10350 10349 10348 10348 10346
10392 10392 10392 10392 10393 10393 10394 10394 10393 10393 10392 10391 10391 10390 10388 10386 10385 10383 10381 10380 10378 10377 10376 10375 10373 10371 10370 10368 10366 10365 10363 10361 10360 10358 10357 10356 10355 10355 10353 10353 10352 10351 10351 10351 10350 10350 10350 10350 10350 10350 10350 10350 10350 10350 10350 10350 10350 10350 10350 10350 10350 10351 10351 10351 10352 10352 10352 10352 10352 10351 10351 10351 10351 10351 10351 10350 10349 10348 10348 10347 10346 10346 10345 10345 10344 10343
10386 10386 10386 10386 10388 10388 10388 10388 10387 10387 10386 10386 10385 10383 10382 10380 10379 10377 10375 10374 10372 10371 10370 10369 10368 10366 10364 10363 10361 10360 10358 10357 10356 10355 10353 10352 10351 10350 10350 10349 10348 10348 10348 10347 10347 10347 10346 10347 10346 10346 10346 10346 10346 10346 10346 10346 10346 10347 10347 10347 10348 10348 10348 10348 10349 10349 10349 10349 10349 10349 10348 10348 10348 10348 10347 10346 10345 10345 10344 10343 10343 10342 10341 10340 10340 10339
10379 10380 10380 10381 10382 10382 10382 10382 10381 10381 10380 10380 10378 10377 10376 10375 10373 10371 10370 10368 10366 10365 10365 10363 10362 10361 10360 10358 10356 10355 10353 10353 10351 10350 10349 10348 10348 10346 10346 10345 10345 10345 10345 10344 10344 10343 10343 10344 10344 10343 10343 10343 10343 10343 10343 10343 10343 10344 10344 10345 10345 10345 10345 10345 10345 10346 10346 10346 10345 10345 10345 10345 10345 10344 10343 10342 10341 10341 10340 10340 10339 10338 10337 10336 10335 10335
10373 10374 10375 10376 10376 10376 10376 10376 10375 10375 10375 10373 10373 10371 10370 10368 10367 10366 10364 10362 10361 10360 10359 10358 10357 10356 10354 10353 10351 10350 10349 10348 10347 10346 10345 10345 10344 10343 10343 10342 10341 10341 10341 10341 10341 10341 10340 10340 10340 10340 10340 10340 10340 10340 10340 10340 10341 10341 10341 10342 10342 10342 10342 10342 10342 10342 10342 10342 10342 10342 10342 10341 10341 10340 10340 10338 10338 10337 10336 10336 10335 10334 10333 10332 10331 10330
10367 10368 10369 10370 10370 10370 10370 10370 10370 10369 10368 10368 10366 10365 10364 10363 10361 10360 10358 10357 10356 10355 10354 10353 10352 10351 10349 10348 10347 10346 10345 10344 10343 10342 10341 10341 10340 10340 10339 10339 10338 10338 10338 10338 10338 10338 10338 10337 10337 10337 10338 10338 10337 10337 10337 10338 10338 10338 10338 10339 10339 10339 10339 10339 10339 10339 10339 10339 10339 10339 10338 10338 10337 10336 10335 10335 10334 10333 10333 10332 10331 10330 10329 10328 10326 10326
10361 10363 10363 10364 10364 10365 10364 10364 10363 10363 10362 10361 10360 10359 10358 10356 10355 10354 10353 10351 10351 10350 10348 10348 10347 10346 10345 10343 10342 10341 10340 10340 10339 10338 10338 10337 10336 10336 10336 10335 10335 10335 10335 10335 10335 10335 10335 10335 10335 10334 10334 10334 10334 10334 10334 10335 10335 10335 10335 10335 10336 10336 10336 10336 10336 10336 10336 10336 10335 10335 10335 10334 10333 10332 10331 10330 10330 10329 10328 10328 10327 10326 10325 10323 10322 10321
10356 10356 10358 10358 10358 10358 10358 10358 10358 10357 10356 10355 10354 10353 10352 10351 10350 10348 10347 10346 10345 10345 10343 10343 10341 10341 10340 10339 10338 10337 10336 10335 10335 10334 10334 10333 10333 10333 10332 10332 10331 10331 10331 10331 10331 10331 10331 10331 10331 10331 10331 10331 10331 10331 10331 10331 10332 10332 10332 10332 10332 10332 10332 10332 10332 10333 10333 10332 10332 10331 10331 10330 10329 10328 10327 10326 10326 10325 10324 10323 10323 10321 10320 10319 10317 10316
10350 10351 10351 10351 10352 10352 10352 10351 10351 10351 10350 10349 10348 10347 10346 10345 10344 10343 10342 10341 10340 10340 10338 10338 10336 10336 10335 10335 10333 10333 10332 10331 10331 10330 10330 10330 10329 10329 10329 10328 10328 10328 10328 10328 10328 10328 10328 10328 10328 10328 10328 10328 10328 10328 10328 10328 10328 10329 10329 10329 10329 10329 10329 10329 10329 10330 10330 10329 10328 10328 10327 10326 10325 10324 10323 10322 10321 10321 10320 10319 10318 10317 10316 10315 10313 10311
10344 10345 10345 10346 10346 10346 10346 10346 10345 10345 10344 10343 10342 10341 10340 10340 10339 10338 10336 10336 10335 10334 10333 10333 10332 10331 10331 10330 10329 10329 10328 10328 10327 10326 10326 10326 10325 10325 10325 10325 10325 10325 10325 10325 10325 10325 10325 10325 10325 10325 10325 10325 10325 10325 10325 10325 10325 10326 10326 10326 10326 10325 10325 10325 10325 10326 10325 10325 10325 10324 10323 10323 10321 10321 10320 10318 10317 10316 10316 10315 10314 10313 10311 10310 10308 10306
10338 10338 10339 10340 10340 10340 10340 10340 10339 10338 10338 10337 10336 10336 10335 10334 10333 10332 10331 10331 10330 10329 10328 10328 10328 10327 10326 10325 10325 10325 10324 10323 10323 10323 10322 10322 10322 10321 10321 10321 10321 10321 10321 10321 10321 10321 10321 10321 10322 10322 10322 10323 10323 10322 10322 10322 10322 10322 10322 10322 10322 10322 10322 10321 10321 10321 10321 10321 10321 10320 10320 10319 10318 10317 10316 10315 10313 10312 10311 10310 10309 10308 10307 10305 10304 10302
10332 10333 10333 10333 10334 10334 10334 10334 10333 10333 10332 10331 10331 10330 10330 10328 10328 10327 10326 10326 10325 10325 10324 10323 10323 10323 10322 10321 10321 10320 10320 10320 10319 10319 10318 10318 10318 10318 10318 10318 10318 10318 10318 10318 10318 10318 10318 10318 10318 10318 10319 10319 10320 10320 10320 10320 10319 10319 10319 10318 10318 10318 10318 10318 10318 10317 10317 10317 10316 10316 10315 10315 10314 10313 10312 10311 10310 10308 10306 10305 10305 10303 10302 10301 10299 10297